CW5333 Weather Reports


time (UTC)temp
C
wind
direction
speed
KPH
gust
KPH
rain 1hr
cm
rain 24hr
cm
rain mn
cm
humidity
%
barometer
mb
20260507134804 10 231 8.0 12.9 0.00 0.00 0.00 74 1017.7
20260507133804 10 238 8.0 12.9 0.00 0.00 0.00 76 1017.8
20260507132803 9 233 8.0 12.9 0.00 0.00 0.00 77 1017.9
20260507132307 9 228 4.8 9.7 0.00 0.00 0.00 81 1018.0
20260507131804 8 232 4.8 8.0 0.00 0.00 0.00 81 1018.0
20260507131304 8 251 4.8 8.0 0.00 0.00 0.00 81 1018.0
20260507130804 8 242 4.8 4.8 0.00 0.00 0.00 84 1018.0
20260507125803 7 254 3.2 4.8 0.00 0.00 0.00 84 1018.0
20260507125306 7 245 4.8 8.0 0.00 0.00 0.00 84 1017.9
20260507124804 7 259 3.2 4.8 0.00 0.00 0.00 88 1017.9
20260507123804 7 258 1.6 3.2 0.00 0.00 0.00 95 1017.8
20260507123304 6 286 0.0 1.6 0.00 0.00 0.00 96 1017.8
20260507122803 6 350 0.0 0.0 0.00 0.00 0.00 96 1017.8
20260507122307 6 350 0.0 0.0 0.00 0.00 0.00 96 1017.7
20260507121303 5 350 0.0 0.0 0.00 0.00 0.00 97 1017.6
20260507120803 5 350 0.0 0.0 0.00 0.00 0.00 97 1017.7
20260507115804 3 350 0.0 0.0 0.00 0.00 0.00 98 1017.6
20260507114804 3 331 0.0 0.0 0.00 0.00 0.00 97 1017.5
20260507114304 3 331 0.0 0.0 0.00 0.00 0.00 97 1017.5
20260507113803 2 331 0.0 0.0 0.00 0.00 0.00 97 1017.4
20260507112803 2 331 0.0 0.0 0.00 0.00 0.00 97 1017.3
20260507112307 2 331 0.0 0.0 0.00 0.00 0.00 97 1017.2
20260507111803 2 331 0.0 0.0 0.00 0.00 0.00 97 1017.2
20260507111303 2 331 0.0 0.0 0.00 0.00 0.00 97 1017.2
20260507110804 2 331 0.0 0.0 0.00 0.00 0.00 97 1017.2
20260507110304 2 331 0.0 0.0 0.00 0.00 0.00 97 1017.2
20260507105306 2 331 0.0 0.0 0.00 0.00 0.00 97 1017.2
20260507104803 2 331 0.0 0.0 0.00 0.00 0.00 97 1017.2
20260507103804 2 331 0.0 0.0 0.00 0.00 0.00 97 1017.3
20260507103303 2 331 0.0 0.0 0.00 0.00 0.00 96 1017.3
20260507102803 2 331 0.0 0.0 0.00 0.00 0.00 96 1017.3
20260507102306 2 331 0.0 0.0 0.00 0.00 0.00 96 1017.3
20260507101804 2 331 0.0 0.0 0.00 0.00 0.00 96 1017.3
20260507101303 3 331 0.0 0.0 0.00 0.00 0.00 96 1017.3
20260507100304 3 331 0.0 0.0 0.00 0.00 0.00 96 1017.3
20260507095306 3 331 0.0 0.0 0.00 0.00 0.00 96 1017.4
20260507094303 3 331 0.0 0.0 0.00 0.00 0.00 96 1017.5
20260507093803 3 331 0.0 0.0 0.00 0.00 0.00 96 1017.5
20260507093304 4 331 0.0 0.0 0.00 0.00 0.00 96 1017.4
20260507092804 4 331 0.0 0.0 0.00 0.00 0.00 96 1017.4
20260507092306 4 331 0.0 0.0 0.00 0.00 0.00 96 1017.4
20260507091804 4 331 0.0 0.0 0.00 0.00 0.00 96 1017.4
20260507091303 4 331 0.0 1.6 0.00 0.00 0.00 96 1017.4
20260507090804 4 322 0.0 3.2 0.00 0.00 0.00 96 1017.4
20260507085803 4 302 1.6 4.8 0.00 0.00 0.00 97 1017.5
20260507085306 3 260 1.6 4.8 0.00 0.00 0.00 97 1017.5
20260507084803 3 214 0.0 0.0 0.00 0.00 0.00 97 1017.5
20260507084304 3 214 0.0 0.0 0.00 0.00 0.00 97 1017.5
20260507083804 3 214 0.0 0.0 0.00 0.00 0.00 96 1017.5
20260507083304 3 214 0.0 0.0 0.00 0.00 0.00 96 1017.5
20260507082803 3 214 1.6 3.2 0.00 0.00 0.00 97 1017.6
20260507082306 3 222 1.6 3.2 0.00 0.00 0.00 96 1017.6
20260507081804 3 14 0.0 0.0 0.00 0.00 0.00 96 1017.6
20260507080803 3 14 0.0 0.0 0.00 0.00 0.00 96 1017.5
20260507075804 4 14 0.0 0.0 0.00 0.00 0.00 95 1017.5
20260507075306 4 14 0.0 0.0 0.00 0.00 0.00 95 1017.5
20260507074804 4 14 0.0 0.0 0.00 0.00 0.00 95 1017.6
20260507074303 4 14 0.0 1.6 0.00 0.00 0.00 95 1017.6
20260507073803 4 15 0.0 3.2 0.00 0.00 0.00 95 1017.6
20260507073304 4 2 0.0 3.2 0.00 0.00 0.00 95 1017.7
20260507072803 4 3 0.0 3.2 0.00 0.00 0.00 95 1017.6
20260507072306 4 20 3.2 3.2 0.00 0.00 0.00 95 1017.6
20260507071804 4 28 3.2 3.2 0.00 0.00 0.00 94 1017.6
20260507071304 4 25 1.6 3.2 0.00 0.00 0.00 94 1017.7
20260507070804 4 41 0.0 1.6 0.00 0.00 0.00 94 1017.8
20260507070304 4 12 0.0 0.0 0.00 0.00 0.00 94 1017.9
20260507065803 4 12 0.0 1.6 0.00 0.00 0.00 94 1017.9
20260507065306 4 10 0.0 3.2 0.00 0.00 0.00 94 1017.9
20260507063803 5 45 1.6 3.2 0.00 0.00 0.00 94 1017.9
20260507063303 5 43 3.2 3.2 0.00 0.00 0.00 94 1018.0
20260507062803 5 29 3.2 3.2 0.00 0.00 0.00 94 1018.1
20260507061803 5 29 1.6 3.2 0.00 0.00 0.00 93 1018.2
20260507061304 5 25 0.0 3.2 0.00 0.00 0.00 93 1018.3
20260507060803 5 35 1.6 3.2 0.00 0.00 0.00 93 1018.4
20260507060303 5 21 1.6 3.2 0.00 0.00 0.00 93 1018.4
20260507055803 5 6 1.6 3.2 0.00 0.00 0.00 93 1018.4
20260507055306 5 23 0.0 3.2 0.00 0.00 0.00 93 1018.3
20260507054804 5 7 3.2 3.2 0.00 0.00 0.00 93 1018.2
20260507054303 5 25 3.2 3.2 0.00 0.00 0.00 92 1018.2
20260507053803 5 8 3.2 3.2 0.00 0.00 0.00 92 1018.2
20260507053304 5 0 1.6 3.2 0.00 0.00 0.00 92 1018.2
20260507052306 5 62 3.2 4.8 0.00 0.00 0.00 92 1018.0
20260507051804 5 79 3.2 8.0 0.00 0.00 0.00 92 1018.0
20260507051304 5 69 0.0 4.8 0.00 0.00 0.00 92 1018.0
20260507050812 5 253 0.0 0.0 0.00 0.00 0.00 92 1018.0
20260507050304 5 253 0.0 0.0 0.00 0.00 0.00 92 1018.0
20260507045804 5 322 0.0 1.6 0.00 0.00 0.00 92 1018.1
20260507045306 5 319 1.6 1.6 0.00 0.00 0.00 92 1018.1
20260507044303 5 234 0.0 0.0 0.00 0.00 0.00 92 1018.0
20260507043804 5 234 0.0 0.0 0.00 0.00 0.00 91 1018.1
20260507043303 5 234 0.0 0.0 0.00 0.00 0.00 91 1018.1
20260507042804 5 234 0.0 0.0 0.00 0.00 0.00 90 1018.1
20260507042306 5 234 0.0 0.0 0.00 0.00 0.00 90 1018.1
20260507041804 5 234 0.0 0.0 0.00 0.00 0.00 90 1018.2
20260507041304 5 234 0.0 0.0 0.00 0.00 0.00 90 1018.2
20260507040804 6 234 0.0 0.0 0.00 0.00 0.00 89 1018.3
20260507040304 6 234 0.0 0.0 0.00 0.00 0.00 89 1018.4
20260507035804 6 233 0.0 3.2 0.00 0.00 0.00 89 1018.4
20260507035306 6 358 0.0 3.2 0.00 0.00 0.00 88 1018.3
20260507034804 6 27 0.0 0.0 0.00 0.00 0.00 88 1018.3
20260507034304 6 27 0.0 0.0 0.00 0.00 0.00 87 1018.3
20260507033805 6 27 0.0 0.0 0.00 0.00 0.00 85 1018.2
20260507033304 6 27 0.0 0.0 0.00 0.00 0.00 84 1018.2
20260507032804 6 27 0.0 1.6 0.00 0.00 0.00 83 1018.1
20260507032305 6 26 0.0 0.0 0.00 0.00 0.00 83 1018.0
20260507031804 7 26 0.0 1.6 0.00 0.00 0.00 82 1018.0
20260507031304 7 358 0.0 1.6 0.00 0.00 0.00 82 1018.0
20260507030803 7 19 1.6 3.2 0.00 0.00 0.00 81 1018.0
20260507030303 7 68 0.0 1.6 0.00 0.00 0.00 80 1017.9
20260507025306 7 25 0.0 0.0 0.00 0.00 0.00 78 1018.1
20260507024804 7 25 0.0 3.2 0.00 0.00 0.00 77 1018.1
20260507024304 8 23 1.6 3.2 0.00 0.00 0.00 76 1017.9
20260507023804 8 26 1.6 3.2 0.00 0.00 0.00 76 1017.9
20260507022804 8 343 0.0 3.2 0.00 0.00 0.00 73 1017.9
20260507022306 9 4 3.2 4.8 0.00 0.00 0.00 70 1017.9
20260507020804 9 21 3.2 4.8 0.00 0.00 0.00 70 1017.6
20260507020303 9 20 3.2 4.8 0.00 0.00 0.00 72 1017.6
20260507015804 10 20 3.2 8.0 0.00 0.00 0.00 68 1017.5
20260507015306 10 19 3.2 4.8 0.00 0.00 0.00 70 1017.5
20260507014303 10 13 1.6 4.8 0.00 0.00 0.00 68 1017.3
20260507013804 11 8 1.6 4.8 0.00 0.00 0.00 67 1017.3
20260507013304 11 16 1.6 4.8 0.00 0.00 0.00 64 1017.2
20260507012804 11 9 3.2 3.2 0.00 0.00 0.00 61 1017.1
20260507012306 11 18 3.2 3.2 0.00 0.00 0.00 58 1017.0
20260507011804 12 18 1.6 3.2 0.00 0.00 0.00 54 1017.0
20260507011304 12 18 1.6 3.2 0.00 0.00 0.00 52 1017.0
20260507010804 13 25 1.6 3.2 0.00 0.00 0.00 54 1017.0
20260507010304 13 23 0.0 3.2 0.00 0.00 0.00 50 1017.0
20260507005804 14 32 1.6 3.2 0.00 0.00 0.00 45 1017.0
20260507005305 15 339 0.0 3.2 0.00 0.00 0.00 44 1016.9
20260507004804 15 4 0.0 3.2 0.00 0.00 0.00 41 1016.9
20260507004303 15 5 1.6 4.8 0.00 0.00 0.00 42 1016.9
20260507003804 16 342 1.6 3.2 0.00 0.00 0.00 40 1016.9
20260507002804 16 27 1.6 9.7 0.00 0.00 0.00 40 1016.7
20260507001804 16 1 3.2 4.8 0.00 0.00 0.00 38 1016.7
20260507001304 16 5 1.6 9.7 0.00 0.00 0.00 38 1016.7
20260507000804 16 6 1.6 8.0 0.00 0.00 0.00 39 1016.6
20260507000306 16 32 4.8 11.3 0.00 0.00 0.00 38 1016.6
20260506235804 16 26 4.8 9.7 0.00 0.00 0.00 37 1016.6
20260506235306 16 10 4.8 11.3 0.00 0.00 0.00 39 1016.5
20260506234804 16 24 6.4 11.3 0.00 0.00 0.00 37 1016.5
20260506234304 16 25 4.8 11.3 0.00 0.00 0.00 37 1016.5
20260506233803 16 36 3.2 9.7 0.00 0.00 0.00 37 1016.5
20260506233304 16 13 4.8 8.0 0.00 0.00 0.00 39 1016.5
20260506232804 16 350 6.4 11.3 0.00 0.00 0.00 39 1016.4
20260506232306 16 10 6.4 12.9 0.00 0.00 0.00 40 1016.5
20260506231804 16 38 9.7 14.5 0.00 0.00 0.00 38 1016.5
20260506231304 16 30 3.2 14.5 0.00 0.00 0.00 40 1016.5
20260506230803 16 27 6.4 14.5 0.00 0.00 0.00 40 1016.5
20260506230303 16 25 6.4 16.1 0.00 0.00 0.00 40 1016.5
20260506225804 16 294 4.8 11.3 0.00 0.00 0.00 38 1016.5
20260506225305 16 18 4.8 9.7 0.00 0.00 0.00 40 1016.6
20260506224804 16 339 6.4 14.5 0.00 0.00 0.00 42 1016.6
20260506223804 16 356 4.8 16.1 0.00 0.00 0.00 38 1016.5
20260506223303 16 33 6.4 14.5 0.00 0.00 0.00 40 1016.5
20260506222306 16 21 8.0 14.5 0.00 0.00 0.00 39 1016.5
20260506221804 16 20 4.8 11.3 0.00 0.00 0.00 41 1016.5
20260506221303 16 8 8.0 14.5 0.00 0.00 0.00 40 1016.5
20260506220803 16 15 9.7 14.5 0.00 0.00 0.00 37 1016.5
20260506220305 16 16 4.8 12.9 0.00 0.00 0.00 38 1016.5
20260506215804 16 331 9.7 14.5 0.00 0.00 0.00 41 1016.5
20260506215306 16 330 4.8 14.5 0.00 0.00 0.00 39 1016.6
20260506214803 16 277 4.8 14.5 0.00 0.00 0.00 38 1016.7
20260506214304 16 13 9.7 16.1 0.00 0.00 0.00 40 1016.8
20260506213804 16 323 9.7 19.3 0.00 0.00 0.00 40 1016.9
20260506213303 16 54 9.7 16.1 0.00 0.00 0.00 40 1016.8
20260506212804 15 358 3.2 11.3 0.00 0.00 0.00 40 1016.9
20260506212306 15 349 9.7 16.1 0.00 0.00 0.00 39 1017.0
20260506211804 15 17 6.4 16.1 0.00 0.00 0.00 40 1017.0
20260506211304 15 22 11.3 16.1 0.00 0.00 0.00 38 1017.0
20260506210803 15 41 8.0 16.1 0.00 0.00 0.00 39 1017.0
20260506210304 16 37 9.7 16.1 0.00 0.00 0.00 38 1017.0
20260506205804 16 345 8.0 16.1 0.00 0.00 0.00 39 1017.0
20260506204803 16 44 3.2 14.5 0.00 0.00 0.00 41 1017.0
20260506204304 16 47 9.7 20.9 0.00 0.00 0.00 38 1017.0
20260506203803 15 45 6.4 19.3 0.00 0.00 0.00 41 1017.1
20260506203304 16 48 9.7 16.1 0.00 0.00 0.00 38 1017.1
20260506202804 16 45 9.7 14.5 0.00 0.00 0.00 41 1017.2
20260506202306 15 327 8.0 19.3 0.00 0.00 0.00 41 1017.1
20260506201803 15 3 9.7 19.3 0.00 0.00 0.00 41 1017.2
20260506201304 15 45 9.7 19.3 0.00 0.00 0.00 40 1017.2
20260506200803 16 6 9.7 16.1 0.00 0.00 0.00 40 1017.3
20260506200304 16 47 4.8 14.5 0.00 0.00 0.00 41 1017.3
20260506195306 16 345 8.0 14.5 0.00 0.00 0.00 42 1017.3
20260506194804 15 348 8.0 19.3 0.00 0.00 0.00 41 1017.4
20260506194303 15 292 8.0 14.5 0.00 0.00 0.00 41 1017.4
20260506193803 15 24 11.3 19.3 0.00 0.00 0.00 42 1017.4
20260506193304 15 48 11.3 20.9 0.00 0.00 0.00 42 1017.5
20260506192305 15 16 8.0 16.1 0.00 0.00 0.00 42 1017.7
20260506191803 15 49 9.7 14.5 0.00 0.00 0.00 40 1017.7
20260506191303 15 7 9.7 16.1 0.00 0.00 0.00 42 1017.7
20260506190804 15 25 11.3 20.9 0.00 0.00 0.00 39 1017.9
20260506190304 15 33 11.3 19.3 0.00 0.00 0.00 41 1017.8
20260506185803 15 35 8.0 12.9 0.00 0.00 0.00 42 1017.9
20260506185306 15 357 8.0 16.1 0.00 0.00 0.00 43 1017.9
20260506184804 14 13 6.4 16.1 0.00 0.00 0.00 46 1018.0
20260506184304 14 340 4.8 14.5 0.00 0.00 0.00 45 1018.0
20260506183803 14 330 4.8 11.3 0.00 0.00 0.00 46 1018.1
20260506183303 15 45 6.4 14.5 0.00 0.00 0.00 46 1018.1
20260506182803 15 43 11.3 19.3 0.00 0.00 0.00 43 1018.1
20260506182306 15 20 6.4 19.3 0.00 0.00 0.00 46 1018.2
20260506181304 15 266 4.8 12.9 0.00 0.00 0.00 43 1018.2
20260506180804 15 325 4.8 12.9 0.00 0.00 0.00 46 1018.2
20260506180303 15 2 3.2 9.7 0.00 0.00 0.00 45 1018.3
20260506175306 14 58 8.0 14.5 0.00 0.00 0.00 46 1018.5
20260506174304 14 34 8.0 12.9 0.00 0.00 0.00 47 1018.5
20260506173804 14 350 6.4 14.5 0.00 0.00 0.00 47 1018.7
20260506172803 14 338 1.6 12.9 0.00 0.00 0.00 47 1018.7
20260506171804 14 311 8.0 16.1 0.00 0.00 0.00 49 1018.8
20260506171304 14 338 8.0 16.1 0.00 0.00 0.00 49 1018.9
20260506170804 14 43 9.7 14.5 0.00 0.00 0.00 48 1018.9
20260506165803 14 40 11.3 20.9 0.00 0.00 0.00 47 1018.8
20260506165305 13 345 8.0 16.1 0.00 0.00 0.00 51 1018.8
20260506164804 13 342 6.4 12.9 0.00 0.00 0.00 48 1018.8
20260506164304 13 34 8.0 14.5 0.00 0.00 0.00 53 1018.8
20260506163803 13 30 4.8 12.9 0.00 0.00 0.00 55 1018.8
20260506163304 13 353 8.0 16.1 0.00 0.00 0.00 52 1018.8
20260506162804 12 4 8.0 16.1 0.00 0.00 0.00 54 1018.7
20260506162306 13 280 11.3 20.9 0.00 0.00 0.00 55 1018.5
20260506161803 13 32 9.7 14.5 0.00 0.00 0.00 56 1018.4
20260506161304 13 330 8.0 16.1 0.00 0.00 0.00 56 1018.2
20260506160804 12 341 8.0 14.5 0.00 0.00 0.00 58 1017.9
20260506160304 12 6 9.7 14.5 0.00 0.00 0.00 55 1018.0
20260506155804 12 313 6.4 12.9 0.00 0.00 0.00 55 1018.0
20260506155306 12 299 6.4 22.5 0.00 0.00 0.00 59 1018.0
20260506154804 12 295 9.7 14.5 0.00 0.00 0.00 56 1018.0
20260506154304 12 312 8.0 19.3 0.00 0.00 0.00 58 1018.0
20260506153804 12 305 8.0 11.3 0.00 0.00 0.00 57 1018.1
20260506153304 12 310 6.4 16.1 0.00 0.00 0.00 61 1017.9
20260506152804 12 337 6.4 11.3 0.00 0.00 0.00 65 1017.8
20260506152305 12 336 9.7 14.5 0.00 0.00 0.00 60 1017.8
20260506151803 12 303 6.4 12.9 0.00 0.00 0.00 59 1017.9
20260506151304 12 352 4.8 9.7 0.00 0.00 0.00 59 1018.0
20260506150804 12 36 9.7 16.1 0.00 0.00 0.00 57 1018.0
20260506150305 12 12 8.0 14.5 0.00 0.00 0.00 58 1017.9
20260506145804 12 10 8.0 12.9 0.00 0.00 0.00 58 1017.8
20260506145305 12 67 9.7 14.5 0.00 0.00 0.00 60 1017.7
20260506144803 11 34 3.2 9.7 0.00 0.00 0.00 67 1017.8
20260506144304 11 353 6.4 16.1 0.00 0.00 0.00 63 1017.8
20260506143803 11 329 8.0 14.5 0.00 0.00 0.00 65 1017.8
20260506143304 11 321 6.4 12.9 0.00 0.00 0.00 66 1018.0
20260506142804 11 344 3.2 9.7 0.00 0.00 0.00 69 1018.1
20260506142306 11 283 4.8 9.7 0.00 0.00 0.00 70 1018.1
20260506141803 10 352 6.4 14.5 0.00 0.00 0.00 69 1018.1
20260506141304 10 302 3.2 9.7 0.00 0.00 0.00 76 1018.0
20260506140804 10 292 6.4 12.9 0.00 0.00 0.00 77 1018.1
20260506140303 10 299 6.4 9.7 0.00 0.00 0.00 77 1018.2
20260506135803 10 265 8.0 12.9 0.00 0.00 0.00 77 1017.9
20260506135306 10 269 4.8 14.5 0.00 0.00 0.00 75 1018.0